PulseSat

PulseSat

MOLNIYA 1-40

Last updated on March 18, 2019, 3:11 a.m. UTC

1 10925U 78055A   19074.87310129 -.00000407  00000-0 -20675-1 0  9998
2 10925  62.4341 204.3739 7084894 277.0353  13.9454  2.00686226298821
UTC
Height (km)
Latitude
Longitude
Inclination
Orbital Period

Next 30 passes for location: Hong Kong

Rise time Rise Azimuth (degrees) Set time Set Azimuth (degrees) Duration Max altitude (degrees)

No matching passes for this satellites

PulseSat

PulseSat is the new satellites software and hardware trackering solution by Pulsely.
Satellite Two Line Element Set source: US Air Force Space Command

Download PulseSat for iOS
© 2017 Pulsely Limited